パンスターズ彗星

C/2020 K1 ( PanSTARRS )

English version
Home page
Updated on September 2, 2023

---------------------------------------------------------------------

・ プロフィール

発見日 2020年5月17日
発見光度 20.6等
発見者 Pan-STARRS2 1.8-m Ritchey-Chretien reflector at Haleakala

・ 写真集

・ 軌道要素

Epoch 2023 Sept. 13.0 TT = JDT 2460200.5
T 2023 May  9.09113 TT                                  Rudenko
q   3.0733607            (2000.0)            P               Q
z  +0.0000233      Peri.  213.98642     +0.06618932     -0.03775067
 +/-0.0000003      Node    94.35780     -0.53597430     +0.84153630
e   0.9999285      Incl.   89.67259     -0.84163562     -0.53887990
>From 3098 observations 2020 Apr. 17-2023 Aug. 10, mean residual 0".5.

・ 星図

・ 光度変化

        m1 = 4.5 + 5 logΔ + 11.0 log r(t + 120)

        ※ 灰色の曲線は、m1 = 2.0 + 5 logΔ + 13.0 log r の光度曲線です。

---------------------------------------------------------------------

軌道要素はM.P.E.C. 2023-Q150に掲載されたものです。
星図はステラナビゲータ Ver.10 (アストロアーツ) で作成したものです。
光度グラフはComet for Windowsで作成したものです。

---------------------------------------------------------------------

Copyright(C) Seiichi Yoshida (comet@aerith.net). All rights reserved.